Weather History for Williamsport, PA

Change the Weather History Date:

Saturday, February 23, 2013

  Actual Average Record
Temperature  
Mean Temperature 34 °F 31 °F  
Max Temperature 36 °F 40 °F 70 °F (1985)
Min Temperature 32 °F 23 °F -6 °F (1972)
Degree Days  
Heating Degree Days 31 34  
Month to date heating degree days 851 824  
Since 1 July heating degree days 4019 4303  
Cooling Degree Days 0 0  
Month to date cooling degree days 0 0  
Year to date cooling degree days 0 0  
Moisture  
Dew Point 32 °F    
Average Humidity 85    
Maximum Humidity 100    
Minimum Humidity 69    
Precipitation  
Precipitation T in 0.08 in 2.18 in (1981)
Month to date precipitation 0.79 1.91  
Year to date precipitation 3.43 4.61  
Snow  
Snow 0.00 in - - ()
Month to date snowfall 3.3  
Since 1 July snowfall 26.3  
Snow Depth 0.00 in    
Sea Level Pressure  
Sea Level Pressure 29.99 in    
Wind  
Wind Speed 5 mph (ENE)    
Max Wind Speed 15 mph    
Max Gust Speed 22 mph    
Visibility 3 miles    
Events Fog , Rain    
T = Trace of Precipitation, MM = Missing Value Source: NWS Daily Summary

Daily Weather History Graph

Daily Weather History Graph

Search for Another Location

Airport:

Trip Planner

Search our weather history database for the weather conditions in past years. The results will help you decide how hot, cold, wet, or windy it might be!

Date:

Astronomy

Feb. 23, 2013 Rise Set
Actual Time 6:50 AM EST 5:51 PM EST
Civil Twilight 6:22 AM EST 6:19 PM EST
Nautical Twilight 5:50 AM EST 6:51 PM EST
Astronomical Twilight 5:19 AM EST 7:23 PM EST
Moon 3:59 PM EST (2/23) 5:12 AM EST (2/23)
Length of Visible Light 11h 56m
Length of Day
11h 00m
Waxing Gibbous, 95% of the Moon is Illuminated
Feb 23
Waxing Gibbous
Feb 25
Full
Mar 4
Last Quarter
Mar 11
New
Mar 19
First Quarter

Hourly Weather History & Observations

Time (EST) Temp. Windchill Dew Point Humidity Pressure Visibility Wind Dir Wind Speed Gust Speed Precip Events Conditions
12:54 AM 32.0 °F 23.6 °F 24.1 °F 73% 30.18 in 10.0 mi East 10.4 mph 18.4 mph N/A   Overcast
1:54 AM 33.1 °F 26.9 °F 25.0 °F 72% 30.16 in 10.0 mi ENE 6.9 mph 21.9 mph N/A   Overcast
2:54 AM 33.1 °F 23.9 °F 27.0 °F 78% 30.14 in 10.0 mi East 12.7 mph 20.7 mph N/A   Overcast
3:38 AM 33.8 °F 26.4 °F 26.6 °F 75% 30.10 in 9.0 mi East 9.2 mph - N/A   Overcast
3:54 AM 33.1 °F 25.5 °F 28.0 °F 82% 30.12 in 9.0 mi ENE 9.2 mph - N/A   Overcast
4:54 AM 33.1 °F 24.9 °F 28.9 °F 85% 30.10 in 8.0 mi ENE 10.4 mph - N/A   Overcast
5:44 AM 32.0 °F 23.6 °F 30.2 °F 93% 30.07 in 3.0 mi East 10.4 mph - N/A   Overcast
5:54 AM 32.0 °F 23.6 °F 30.9 °F 96% 30.09 in 3.0 mi ENE 10.4 mph 16.1 mph N/A   Overcast
6:31 AM 33.8 °F 27.7 °F 30.2 °F 87% 30.07 in 2.5 mi NE 6.9 mph - N/A   Overcast
6:54 AM 32.0 °F 24.8 °F 30.9 °F 96% 30.09 in 2.5 mi NE 8.1 mph - N/A   Overcast
7:54 AM 33.1 °F 24.9 °F 30.9 °F 92% 30.09 in 2.5 mi ENE 10.4 mph - N/A   Overcast
8:05 AM 33.8 °F 27.0 °F 30.2 °F 87% 30.06 in 3.0 mi NE 8.1 mph - N/A   Overcast
8:15 AM 33.8 °F 25.3 °F 32.0 °F 93% 30.06 in 2.5 mi ENE 11.5 mph - N/A   Overcast
8:26 AM 33.8 °F 27.0 °F 32.0 °F 93% 30.06 in 1.8 mi ENE 8.1 mph - N/A   Overcast
8:34 AM 33.8 °F 27.7 °F 32.0 °F 93% 30.06 in 2.0 mi ENE 6.9 mph - N/A   Overcast
8:51 AM 33.8 °F 28.6 °F 32.0 °F 93% 30.04 in 3.0 mi ENE 5.8 mph - N/A   Overcast
8:54 AM 33.1 °F 27.7 °F 32.0 °F 96% 30.06 in 4.0 mi ENE 5.8 mph - N/A   Overcast
9:54 AM 34.0 °F 27.2 °F 32.0 °F 92% 30.03 in 4.0 mi ENE 8.1 mph - N/A   Overcast
10:13 AM 33.8 °F 26.4 °F 33.8 °F 100% 30.00 in 2.5 mi ENE 9.2 mph - N/A   Overcast
10:29 AM 33.8 °F 25.8 °F 32.0 °F 93% 29.99 in 3.0 mi ENE 10.4 mph - N/A   Overcast
10:39 AM 33.8 °F 27.0 °F 33.8 °F 100% 29.99 in 2.5 mi NE 8.1 mph - N/A   Overcast
10:50 AM 33.8 °F - 33.8 °F 100% 30.00 in 3.0 mi Calm Calm - N/A   Overcast
10:54 AM 34.0 °F - 33.1 °F 96% 30.02 in 4.0 mi Calm Calm - N/A   Overcast
11:28 AM 33.8 °F - 33.8 °F 100% 30.01 in 2.0 mi Calm Calm - N/A   Overcast
11:35 AM 33.8 °F 30.8 °F 33.8 °F 100% 30.00 in 1.5 mi NE 3.5 mph - N/A   Overcast
11:54 AM 34.0 °F 29.8 °F 34.0 °F 100% 30.01 in 1.5 mi NE 4.6 mph - N/A   Overcast
11:57 AM 33.8 °F 29.6 °F 33.8 °F 100% 29.99 in 2.0 mi NE 4.6 mph - N/A   Overcast
12:29 PM 35.6 °F 29.2 °F 33.8 °F 93% 29.98 in 3.0 mi NE 8.1 mph - 0.00 in Rain Light Rain
12:54 PM 35.1 °F 32.2 °F 34.0 °F 96% 29.98 in 5.0 mi NE 3.5 mph - 0.00 in   Overcast
1:23 PM 35.6 °F 29.9 °F 33.8 °F 93% 29.95 in 2.5 mi NE 6.9 mph - N/A   Overcast
1:54 PM 36.0 °F 31.1 °F 34.0 °F 93% 29.95 in 1.8 mi NE 5.8 mph - N/A   Overcast
2:07 PM 35.6 °F - 33.8 °F 93% 29.94 in 2.0 mi Calm Calm - N/A   Overcast
2:18 PM 35.6 °F 32.8 °F 35.6 °F 100% 29.93 in 1.5 mi ESE 3.5 mph - N/A   Overcast
2:54 PM 35.1 °F 31.0 °F 34.0 °F 96% 29.94 in 2.0 mi ENE 4.6 mph - N/A   Overcast
3:12 PM 35.6 °F 30.7 °F 33.8 °F 93% 29.92 in 2.5 mi ENE 5.8 mph - N/A   Overcast
3:27 PM 35.6 °F 32.8 °F 35.6 °F 100% 29.91 in 1.8 mi East 3.5 mph - N/A   Overcast
3:54 PM 35.1 °F 31.0 °F 34.0 °F 96% 29.91 in 1.5 mi East 4.6 mph - N/A   Overcast
4:23 PM 35.6 °F - 35.6 °F 100% 29.89 in 2.0 mi Calm Calm - N/A   Overcast
4:46 PM 35.6 °F - 35.6 °F 100% 29.89 in 1.8 mi Calm Calm - N/A   Overcast
4:54 PM 35.1 °F - 35.1 °F 100% 29.91 in 1.5 mi Calm Calm - N/A   Overcast
5:26 PM 35.6 °F - 33.8 °F 93% 29.89 in 0.8 mi Calm Calm - N/A   Overcast
5:54 PM 34.0 °F - 34.0 °F 100% 29.92 in 0.8 mi Calm Calm - N/A   Overcast
6:07 PM 33.8 °F - 33.8 °F 100% 29.90 in 0.8 mi Calm Calm - N/A   Overcast
6:54 PM 35.1 °F - 34.0 °F 96% 29.90 in 1.2 mi Calm Calm - N/A   Overcast
7:34 PM 35.6 °F - 33.8 °F 93% 29.88 in 2.5 mi Calm Calm - N/A   Overcast
7:54 PM 34.0 °F - 34.0 °F 100% 29.90 in 0.8 mi Calm Calm - N/A   Overcast
8:11 PM 33.8 °F - 33.8 °F 100% 29.89 in 1.0 mi Calm Calm - N/A   Overcast
8:23 PM 33.8 °F - 33.8 °F 100% 29.89 in 0.8 mi Calm Calm - N/A   Overcast
8:54 PM 34.0 °F - 34.0 °F 100% 29.89 in 0.5 mi Calm Calm - N/A Fog Fog
9:21 PM 33.8 °F 30.8 °F 33.8 °F 100% 29.87 in 0.2 mi WNW 3.5 mph - N/A Fog Fog
9:39 PM 33.8 °F 30.8 °F 33.8 °F 100% 29.87 in 0.5 mi WSW 3.5 mph - N/A Fog Fog
9:54 PM 34.0 °F - 34.0 °F 100% 29.88 in 0.5 mi Calm Calm - N/A Fog Fog
10:15 PM 33.8 °F - 33.8 °F 100% 29.87 in 0.2 mi Calm Calm - N/A Fog Fog
10:54 PM 34.0 °F - 34.0 °F 100% 29.87 in 0.2 mi Calm Calm - N/A Fog Fog
11:54 PM 35.1 °F 31.0 °F 34.0 °F 96% 29.87 in 0.2 mi West 4.6 mph - N/A Fog Fog